| time (UTC) | temp F | wind direction | speed MPH | gust MPH | rain 1hr in | rain 24hr in | rain mn in | humidity % | barometer mb |
| 20260510190037 | 75 | 0 | 0.0 | 5.0 | 0.00 | 0.00 | 0.00 | 54 | 1013.0 |
| 20260510184538 | 76 | 0 | 0.0 | 2.0 | 0.00 | 0.01 | 0.00 | 54 | 1013.1 |
| 20260510183035 | 76 | 0 | 0.0 | 1.0 | 0.00 | 0.01 | 0.00 | 47 | 1012.9 |
| 20260510181536 | 77 | 0 | 0.0 | 1.0 | 0.00 | 0.01 | 0.00 | 46 | 1012.8 |
| 20260510180042 | 79 | 0 | 0.0 | 4.0 | 0.00 | 0.01 | 0.00 | 48 | 1013.0 |
| 20260510174531 | 78 | 0 | 0.0 | 4.0 | 0.00 | 0.01 | 0.00 | 50 | 1013.2 |
| 20260510173038 | 78 | 0 | 0.0 | 7.0 | 0.00 | 0.01 | 0.00 | 49 | 1013.2 |
| 20260510171545 | 78 | 0 | 0.0 | 3.0 | 0.00 | 0.01 | 0.00 | 45 | 1013.2 |
| 20260510170041 | 77 | 0 | 0.0 | 4.0 | 0.00 | 0.01 | 0.00 | 44 | 1013.3 |
| 20260510164536 | 76 | 93 | 0.0 | 2.0 | 0.00 | 0.01 | 0.00 | 56 | 1013.4 |
| 20260510163030 | 74 | 0 | 0.0 | 3.0 | 0.00 | 0.01 | 0.00 | 52 | 1013.6 |
| 20260510161535 | 73 | 0 | 0.0 | 5.0 | 0.00 | 0.01 | 0.00 | 55 | 1013.4 |
| 20260510160034 | 72 | 0 | 0.0 | 4.0 | 0.00 | 0.01 | 0.00 | 62 | 1013.7 |
| 20260510154539 | 72 | 0 | 0.0 | 2.0 | 0.00 | 0.01 | 0.00 | 59 | 1013.6 |
| 20260510153048 | 70 | 0 | 0.0 | 6.0 | 0.00 | 0.01 | 0.00 | 61 | 1013.7 |
| 20260510151538 | 69 | 0 | 0.0 | 1.0 | 0.00 | 0.01 | 0.00 | 62 | 1013.8 |
| 20260510150035 | 67 | 0 | 0.0 | 3.0 | 0.00 | 0.01 | 0.00 | 76 | 1013.9 |
| 20260510144535 | 66 | 0 | 0.0 | 2.0 | 0.00 | 0.01 | 0.00 | 79 | 1013.8 |
| 20260510143040 | 64 | 86 | 1.0 | 3.0 | 0.00 | 0.01 | 0.00 | 79 | 1013.8 |
| 20260510141541 | 62 | 0 | 0.0 | 3.0 | 0.00 | 0.01 | 0.00 | 76 | 1013.9 |
| 20260510140036 | 60 | 0 | 0.0 | 4.0 | 0.00 | 0.01 | 0.00 | 87 | 1013.9 |
| 20260510134535 | 59 | 0 | 0.0 | 1.0 | 0.00 | 0.01 | 0.00 | 86 | 1013.9 |
| 20260510133035 | 57 | 0 | 0.0 | 4.0 | 0.00 | 0.01 | 0.00 | 91 | 1013.7 |
| 20260510131536 | 55 | 0 | 0.0 | 1.0 | 0.00 | 0.01 | 0.00 | 100 | 1013.9 |
| 20260510130046 | 55 | 0 | 0.0 | 0.0 | 0.00 | 0.01 | 0.00 | 100 | 1014.1 |
| 20260510124548 | 54 | 0 | 0.0 | 0.0 | 0.00 | 0.01 | 0.00 | 100 | 1013.8 |
| 20260510123037 | 54 | 0 | 0.0 | 1.0 | 0.00 | 0.01 | 0.00 | 100 | 1013.6 |
| 20260510121539 | 53 | 0 | 0.0 | 3.0 | 0.00 | 0.01 | 0.00 | 100 | 1013.5 |
| 20260510120035 | 53 | 0 | 0.0 | 2.0 | 0.00 | 0.01 | 0.00 | 100 | 1013.5 |
| 20260510114536 | 53 | 0 | 0.0 | 2.0 | 0.00 | 0.01 | 0.00 | 100 | 1013.2 |
| 20260510113040 | 53 | 0 | 0.0 | 2.0 | 0.00 | 0.01 | 0.00 | 100 | 1013.2 |
| 20260510111536 | 52 | 0 | 0.0 | 1.0 | 0.00 | 0.01 | 0.00 | 100 | 1012.9 |
| 20260510110042 | 52 | 0 | 0.0 | 2.0 | 0.00 | 0.01 | 0.00 | 100 | 1012.7 |
| 20260510104535 | 51 | 0 | 0.0 | 2.0 | 0.00 | 0.01 | 0.00 | 100 | 1012.6 |
| 20260510103038 | 51 | 0 | 0.0 | 0.0 | 0.00 | 0.01 | 0.00 | 100 | 1012.3 |
| 20260510101539 | 51 | 0 | 0.0 | 0.0 | 0.00 | 0.01 | 0.00 | 100 | 1012.4 |
| 20260510100035 | 51 | 0 | 0.0 | 1.0 | 0.00 | 0.01 | 0.00 | 100 | 1012.5 |
| 20260510094535 | 51 | 0 | 0.0 | 4.0 | 0.00 | 0.01 | 0.00 | 100 | 1012.3 |
| 20260510093035 | 51 | 0 | 0.0 | 5.0 | 0.00 | 0.01 | 0.00 | 100 | 1012.2 |
| 20260510091539 | 51 | 0 | 0.0 | 8.0 | 0.00 | 0.01 | 0.00 | 100 | 1012.1 |
| 20260510090037 | 51 | 341 | 0.0 | 5.0 | 0.00 | 0.01 | 0.00 | 100 | 1011.9 |
| 20260510084537 | 51 | 0 | 0.0 | 0.0 | 0.00 | 0.01 | 0.00 | 100 | 1011.7 |
| 20260510083045 | 51 | 0 | 0.0 | 0.0 | 0.00 | 0.01 | 0.00 | 100 | 1011.7 |
| 20260510081536 | 51 | 0 | 0.0 | 1.0 | 0.00 | 0.01 | 0.00 | 100 | 1011.6 |
| 20260510080037 | 51 | 0 | 0.0 | 2.0 | 0.00 | 0.01 | 0.00 | 100 | 1011.6 |
| 20260510074542 | 50 | 0 | 0.0 | 3.0 | 0.00 | 0.01 | 0.00 | 100 | 1011.5 |
| 20260510073036 | 50 | 0 | 0.0 | 2.0 | 0.00 | 0.01 | 0.00 | 100 | 1011.3 |
| 20260510071539 | 50 | 0 | 0.0 | 0.0 | 0.00 | 0.01 | 0.00 | 100 | 1011.0 |
| 20260510070036 | 50 | 0 | 0.0 | 0.0 | 0.00 | 0.01 | 0.00 | 100 | 1011.0 |
| 20260510064539 | 50 | 0 | 0.0 | 0.0 | 0.00 | 0.01 | 0.00 | 100 | 1011.0 |
| 20260510063036 | 50 | 0 | 0.0 | 0.0 | 0.00 | 0.01 | 0.00 | 100 | 1010.9 |
| 20260510061537 | 50 | 0 | 0.0 | 0.0 | 0.00 | 0.01 | 0.00 | 100 | 1011.1 |
| 20260510060037 | 50 | 0 | 0.0 | 0.0 | 0.00 | 0.01 | 0.00 | 100 | 1011.0 |
| 20260510054535 | 51 | 0 | 0.0 | 0.0 | 0.00 | 0.01 | 0.00 | 100 | 1011.3 |
| 20260510053033 | 51 | 0 | 0.0 | 0.0 | 0.00 | 0.01 | 0.00 | 100 | 1011.3 |
| 20260510051537 | 51 | 0 | 0.0 | 0.0 | 0.00 | 0.01 | 0.00 | 100 | 1011.4 |
| 20260510050038 | 51 | 0 | 0.0 | 0.0 | 0.00 | 0.01 | 0.00 | 100 | 1011.6 |
| 20260510044532 | 51 | 0 | 0.0 | 0.0 | 0.00 | 0.01 | 0.00 | 100 | 1011.7 |
| 20260510043035 | 52 | 0 | 0.0 | 0.0 | 0.00 | 0.01 | 0.00 | 100 | 1011.7 |
| 20260510041532 | 52 | 0 | 0.0 | 0.0 | 0.00 | 0.01 | 0.00 | 100 | 1011.8 |
| 20260510040038 | 52 | 0 | 0.0 | 0.0 | 0.00 | 0.01 | 0.00 | 99 | 1011.7 |
| 20260510034535 | 52 | 0 | 0.0 | 0.0 | 0.00 | 0.01 | 0.01 | 99 | 1011.7 |
| 20260510033043 | 52 | 0 | 0.0 | 0.0 | 0.00 | 0.01 | 0.01 | 99 | 1011.4 |
| 20260510031535 | 52 | 0 | 0.0 | 0.0 | 0.00 | 0.01 | 0.01 | 98 | 1011.2 |
| 20260510030031 | 52 | 0 | 0.0 | 0.0 | 0.00 | 0.01 | 0.01 | 98 | 1010.9 |
| 20260510024536 | 52 | 0 | 0.0 | 0.0 | 0.00 | 0.01 | 0.01 | 97 | 1011.2 |
| 20260510023034 | 53 | 0 | 0.0 | 0.0 | 0.00 | 0.01 | 0.01 | 97 | 1011.1 |
| 20260510021535 | 53 | 0 | 0.0 | 0.0 | 0.00 | 0.01 | 0.01 | 96 | 1011.1 |
| 20260510020036 | 53 | 0 | 0.0 | 0.0 | 0.00 | 0.01 | 0.01 | 95 | 1010.9 |
| 20260510014531 | 54 | 0 | 0.0 | 0.0 | 0.00 | 0.01 | 0.01 | 94 | 1010.8 |
| 20260510013036 | 54 | 0 | 0.0 | 0.0 | 0.00 | 0.01 | 0.01 | 92 | 1011.1 |
| 20260510011536 | 55 | 0 | 0.0 | 0.0 | 0.00 | 0.01 | 0.01 | 92 | 1010.9 |
| 20260510010038 | 55 | 0 | 0.0 | 0.0 | 0.00 | 0.01 | 0.01 | 90 | 1010.7 |
| 20260510004535 | 56 | 0 | 0.0 | 0.0 | 0.00 | 0.01 | 0.01 | 89 | 1010.7 |
| 20260510003035 | 56 | 0 | 0.0 | 0.0 | 0.00 | 0.01 | 0.01 | 88 | 1010.7 |
| 20260510001536 | 57 | 0 | 0.0 | 0.0 | 0.00 | 0.01 | 0.01 | 87 | 1010.6 |
| 20260510000039 | 58 | 0 | 0.0 | 0.0 | 0.00 | 0.01 | 0.01 | 86 | 1010.7 |
| 20260509234542 | 58 | 0 | 0.0 | 0.0 | 0.00 | 0.01 | 0.01 | 85 | 1010.7 |
| 20260509233036 | 58 | 0 | 0.0 | 1.0 | 0.00 | 0.01 | 0.01 | 84 | 1010.4 |
| 20260509231534 | 59 | 0 | 0.0 | 4.0 | 0.00 | 0.01 | 0.01 | 84 | 1010.2 |
| 20260509230041 | 59 | 86 | 1.0 | 6.0 | 0.00 | 0.01 | 0.01 | 84 | 1010.2 |
| 20260509224546 | 59 | 0 | 0.0 | 3.0 | 0.00 | 0.01 | 0.01 | 85 | 1010.4 |
| 20260509223033 | 59 | 350 | 0.0 | 4.0 | 0.00 | 0.01 | 0.01 | 85 | 1010.5 |
| 20260509221533 | 59 | 0 | 0.0 | 2.0 | 0.00 | 0.01 | 0.01 | 85 | 1010.7 |
| 20260509220034 | 59 | 0 | 0.0 | 5.0 | 0.00 | 0.01 | 0.01 | 85 | 1010.7 |
| 20260509214535 | 60 | 0 | 0.0 | 3.0 | 0.00 | 0.01 | 0.01 | 84 | 1011.0 |
| 20260509213035 | 60 | 0 | 0.0 | 3.0 | 0.00 | 0.01 | 0.01 | 81 | 1010.9 |
| 20260509211530 | 61 | 312 | 2.0 | 8.0 | 0.00 | 0.01 | 0.01 | 77 | 1011.2 |
| 20260509210037 | 61 | 0 | 1.0 | 5.0 | 0.00 | 0.01 | 0.01 | 76 | 1010.8 |
| 20260509204535 | 61 | 0 | 3.0 | 8.0 | 0.00 | 0.01 | 0.01 | 75 | 1011.0 |
| 20260509203050 | 61 | 0 | 1.0 | 8.0 | 0.00 | 0.01 | 0.01 | 76 | 1010.7 |
| 20260509201532 | 60 | 0 | 1.0 | 8.0 | 0.00 | 0.01 | 0.01 | 76 | 1010.3 |
| 20260509200035 | 61 | 0 | 3.0 | 10.0 | 0.00 | 0.01 | 0.01 | 79 | 1010.4 |
| 20260509194535 | 60 | 308 | 2.0 | 11.0 | 0.00 | 0.01 | 0.01 | 78 | 1010.4 |
| 20260509193035 | 61 | 312 | 2.0 | 6.0 | 0.00 | 0.01 | 0.01 | 73 | 1011.0 |
| 20260509191535 | 60 | 0 | 1.0 | 6.0 | 0.01 | 0.01 | 0.01 | 81 | 1010.7 |